Find Starlink 6144

NORAD ID: 56894 Int'l Des: 2023-083 Owner: SPXS Country: US Constellation: starlink operational
LEOCIRCULAR

リアルタイム位置

3D地球を読み込み中...

Starlink 6144について

説明を読み込み中...

次回通過

Passes for default location (London). Set your location on the main map for personalized predictions.

高度履歴

Loading altitude history...

軌道要素

1 56894U 23083U 26125.99108784 .00002274 00000-0 92142-4 0 9997
2 56894 43.0002 125.0147 0001375 272.7407 87.3287 15.27583120160475
Epoch: May 5, 2026 • Age: 13 hours

現在のステータス

高度 485.0 km
速度 7.63 km/s
衛星直下点 33.86°N, 114.64°E
打ち上げ日 Jun 12, 2023
運用期間 2.8 years
タイプ internet

技術仕様

分類 Payload
質量 305.00 kg
乾燥質量 290.00 kg
総質量 305.00 kg
長さ 0.20 m
直径 2.80 m
スパン 9.00 m
形状 Box + pan
製造者 SPXS
バスタイプ Starlink
フェーズステータス In Orbit
所有者/国 SPXS/US

Most Searched